Regional Weather Roundup
Issued by NWS

Home | Current Version | Previous Version | Graphics & Text | Print | Product List | Glossary On
Versions: 1 2 3 4 5 6 7 8 9 10 11 12 13 14 15 16 17 18 19 20 21 22 23 24 25 26 27 28 29 30 31 32 33 34 35 36 37 38 39 40 41 42 43 44 45 46 47 48 49 50
425
ASUS43 KMPX 212110
RWRMN
WEATHER ROUNDUP FOR MINNESOTA
NATIONAL WEATHER SERVICE TWIN CITIES/CHANHASSEN MN
300 PM CST SAT JAN 21 2017


NOTE: "FAIR" INDICATES FEW OR NO CLOUDS BELOW 12,000 FEET WITH NO
SIGNIFICANT WEATHER AND/OR OBSTRUCTIONS TO VISIBILITY. N/A MEANS
CURRENT SKY AND/OR WEATHER CONDITIONS ARE NOT AVAILABLE.

MNZ060>063-068>070-212200-
   Twin Cities Metro

CITY           SKY/WX    TMP DP  RH WIND       PRES   REMARKS
TWIN CITIES    CLOUDY    38  35  89 NE3       29.40S
ST PAUL        CLOUDY    37  37 100 CALM      29.41S FOG
CRYSTAL        CLOUDY    38  34  85 N3        29.39S FOG
BLAINE         CLOUDY    39  39 100 CALM      29.40R FOG
LAKEVILLE        N/A     34  34 100 CALM      29.40R FOG
EDEN PRAIRIE   CLOUDY    38  35  89 CALM      29.39R
SOUTH ST PAUL  CLOUDY    37  37  97 CALM      29.40R FOG
LAKE ELMO      FOG       36  36 100 CALM      29.42R VSB 1
$$
MNZ001>005-007-008-013>017-022>024-027-028-212200-
   Northwest Minnesota

CITY           SKY/WX    TMP DP  RH WIND       PRES   REMARKS
BEMIDJI        CLOUDY    34  33  98 E6        29.43R WCI  29
HALLOCK        CLOUDY    36  36 100 E5        29.45R FOG
ROSEAU         CLOUDY    36  32  87 E6        29.47R
WARROAD        CLOUDY    36  30  80 E6        29.48R
THIEF RVR FALL CLOUDY    36  33  89 E7        29.45R
CROOKSTON      CLOUDY    37  36  93 CALM      29.44R
FOSSTON        DRIZZLE   36  34  93 CALM      29.44R
DETROIT LAKES  CLOUDY    36  36 100 SE3       29.42R
MOORHEAD       CLOUDY    36  34  93 E3        29.42R
PARK RAPIDS    CLOUDY    37  33  85 E8        29.41R
MAHNOMEN       CLOUDY    36  34  94 CALM      29.42R
$$
MNZ006-009>011-018-025>026-212200-
   North Central Minnesota

CITY           SKY/WX    TMP DP  RH WIND       PRES   REMARKS
BAUDETTE       CLOUDY    35  33  92 E7        29.47R WCI  29
FLAG ISLAND    CLOUDY    36  34  93 E6        29.48R
INTL FALLS     LGT RAIN  35  33  92 E7        29.48R WCI  29
WASKISH        CLOUDY    37  36  93 E5        29.46R
BIG FORK       CLOUDY    37  34  87 E3        29.45R
LONGVILLE      CLOUDY    36  36 100 CALM      29.43R
GRAND RAPIDS   LGT RAIN  36  35  96 E5        29.45S FOG
CRANE LAKE     CLOUDY    36  34  93 CALM      29.50S
ORR            CLOUDY    36  34  93 CALM      29.44S
COOK           CLOUDY    36  36 100 NE3       29.46S
WALKER         CLOUDY    34  33  98 NE3       29.44R FOG
$$
MNZ012-019>021-037-212200-
   Northeast Minnesota

CITY           SKY/WX    TMP DP  RH WIND       PRES   REMARKS
DULUTH         DRIZZLE   35  34  96 E14       29.43R FOG     WCI  26
ELY            CLOUDY    36  34  93 E8        29.47R
HIBBING        LGT RAIN  34  34 100 E6        29.44R WCI  29
EVELETH        CLOUDY    37  37  97 E6        29.46R
DULUTH HARBOR  DRIZZLE   36  34  93 NE12      29.47R
TWO HARBORS    CLOUDY    37  34  87 E9        29.44R
SILVER BAY     CLOUDY    36  36 100 NE8G17    29.44F
GRAND MARAIS     N/A     38  36  92 NE12G20   29.50F
G MARAIS ARPRT CLOUDY    34  30  86 NE8       29.47F WCI  27
$$
MNZ029>031-032-039>041-046>048-054>057-064-212200-
   West Central Minnesota

CITY           SKY/WX    TMP DP  RH WIND       PRES   REMARKS
FERGUS FALLS   CLOUDY    36  36 100 E6        29.43F
WHEATON        CLOUDY    43  43 100 CALM      29.42R FOG
MORRIS         DRZL/FOG  36  36 100 E7        29.38S VSB 1/2
ALEXANDRIA     CLOUDY    35  34  96 E7        29.40R FOG     WCI  29
ELBOW LAKE     CLOUDY    34  34 100 SE7       29.40S FOG     WCI  28
WADENA         CLOUDY    34  34 100 E3        29.41R FOG
GLENWOOD       FOG       34  34 100 NE7       29.40R VSB 1/2 WCI  28
APPLETON       FOG       36  34  93 E5        29.39R VSB 1/4
BENSON         CLOUDY    37  34  87 SE3       29.41R
ORTONVILLE     FOG       34  32  93 CALM      29.39R VSB<1/4
MADISON        FOG       37  37 100 E5        29.38S VSB<1/4
WILLMAR        FOG       36  36 100 CALM      29.41R VSB 1/4
$$
MNZ033>034-036-042>043-049>051-058-059-212200-
   Central Minnesota

CITY           SKY/WX    TMP DP  RH WIND       PRES   REMARKS
ST CLOUD       FOG       35  35 100 E5        29.41R VSB 1/4 WCI  31
SAUK CENTRE    FOG       34  34 100 E6        29.41R VSB<1/4 WCI  29
PAYNESVILLE    FOG       35  35 100 E5        29.41R VSB 1/4 WCI  31
AITKIN         CLOUDY    37  34  87 E5        29.42R
PINE RIVER     CLOUDY    36  36 100 E3        29.47R
BRAINERD       CLOUDY    35  35 100 NE5       29.43R FOG     WCI  31
STAPLES        FOG       36  36 100 CALM      29.42R VSB 1
LONG PRAIRIE   SNOW      34  34 100 N6        29.41R VSB<1/4 WCI  29
LITTLE FALLS   FOG       34  34 100 CALM      29.42R VSB 1
LITCHFIELD     FOG       36  36 100 E3        29.41R VSB<1/4
BUFFALO        FOG       36  35  96 NE5       29.42R VSB 1/4
MAPLE LAKE     FOG       37  37 100 E5        29.41S VSB 1/4
HUTCHINSON     FOG       37  37 100 E3        29.40S VSB<1/4
$$
MNZ037-044-045-052-053-212200-
   East Central Minnesota

CITY           SKY/WX    TMP DP  RH WIND       PRES   REMARKS
PRINCETON      FOG       37  36  93 NE3       29.42R VSB 3/4
MORA           CLOUDY    36  36 100 CALM      29.43R FOG
CAMBRIDGE      FOG       37  37 100 CALM      29.40R VSB 3/4
RUSH CITY      CLOUDY    36  36 100 CALM      29.42R FOG
MOOSE LAKE     CLOUDY    34  34 100 NE5       29.42R WCI  30
HINCKLEY       CLOUDY    36  36 100 NE3       29.43R FOG
CLOQUET        CLOUDY    36  34  93 E14       29.43R FOG
MCGREGOR       CLOUDY    36  36 100 E6        29.43R
$$
MNZ071>073-080-081-089-090-097-098-212200-
   Southwest Minnesota

CITY           SKY/WX    TMP DP  RH WIND       PRES   REMARKS
MONTEVIDEO     SNOW      36  36 100 SE5       29.40R VSB<1/4
GRANITE FALLS  FOG       37  37  99 CALM      29.40R VSB 1/2
CANBY          CLOUDY    37  36  99 CALM      29.39R FOG
MARSHALL       CLOUDY    36  36 100 CALM      29.39R FOG
REDWOOD FALLS  FOG       36  35  96 E3        29.39R VSB 1/4
OLIVIA         FOG       34  34 100 CALM      29.39R VSB 3/4
PIPESTONE      CLOUDY    34  34 100 W9        29.37R FOG     WCI  26
WINDOM         CLOUDY    37  37 100 SW6       29.38R
WORTHINGTON    LGT RAIN  34  33  96 W15       29.38R VSB 1/4 WCI  24
JACKSON        CLOUDY    36  36 100 SW7       29.38S FOG
TRACY          CLOUDY    38  38 100 CALM      29.38R FOG
SLAYTON        CLOUDY    36  36 100 SW8       29.38R FOG
$$
MNZ065>067-074>077-082>085-091>093-212200-
   South Central Minnesota

CITY           SKY/WX    TMP DP  RH WIND       PRES   REMARKS
MANKATO        FOG       37  36  96 CALM      29.41R VSB 1/4
NEW ULM        CLOUDY    37  37 100 CALM      29.40R FOG
ST JAMES       CLOUDY    37  37 100 CALM      29.41R FOG
FAIRMONT       CLOUDY    38  37  97 SW3       29.40R FOG
GLENCOE        SNOW      37  37 100 CALM      29.40R VSB 1/4
OWATONNA       FOG       37  36  93 CALM      29.40R VSB 1/4
WASECA         FOG       36  36 100 SW3       29.41R VSB 1/4
ALBERT LEA     FOG       37  37 100 CALM      29.39R VSB 1/2
$$
MNZ078>079-086>088-094>096-212200-
   Southeast Minnesota

CITY           SKY/WX    TMP DP  RH WIND       PRES   REMARKS
ROCHESTER      CLOUDY    35  35 100 CALM      29.39R FOG
RED WING       DRIZZLE   37  36  93 CALM      29.40R
STANTON        FOG       37  35  94 CALM      29.39R VSB 1/4
DODGE CENTER   FOG       36  36 100 CALM      29.39R VSB 1/4
WINONA         FOG       36  36 100 SE3       29.42R VSB 1/2
AUSTIN         FOG       36  36 100 SW3       29.40R VSB<1/4
PRESTON        FOG       36  35  97 S7        29.41R VSB<1/4
$$
ABBREVIATIONS USED IN REMARKS
   TC - TEMPERATURES IN CELSIUS
  WCI - WIND CHILL INDEX
   HX - HEAT INDEX
  VSB - VISIBILITY
$$




USA.gov is the U.S. government's official web portal to all federal, state and local government web resources and services.